AAL1732 EGKK-EGPH

Flight info

Callsign AAL1732
Flight time 0h 54m
Altitude 36000
Route LAM L10 BPK UN601 RIBEL DCT INPIP
Aircraft A321/M-SDE3FGHIRWY/LB1

Departure

Time 2026-05-04 11:38
Airport London Gatwick Airport (EGKK)

Arrival

Time 2026-05-04 12:32
Airport Edinburgh Airport (EGPH)
Time Latitude Longitude Altitude Speed Heading
2026-05-04 11:02 51.15816 -0.17943 199 ft 0 kts 76°
2026-05-04 11:22 51.15815 -0.17953 200 ft 2 kts 78°
2026-05-04 11:23 51.15811 -0.17977 200 ft 2 kts 76°
2026-05-04 11:23 51.15809 -0.18002 200 ft 2 kts 93°
2026-05-04 11:24 51.15852 -0.18083 200 ft 0 kts 168°
2026-05-04 11:27 51.15732 -0.18044 200 ft 12 kts 181°
2026-05-04 11:28 51.15678 -0.18135 200 ft 11 kts 255°
2026-05-04 11:28 51.15667 -0.18200 200 ft 4 kts 259°
2026-05-04 11:28 51.15659 -0.18264 200 ft 6 kts 258°
2026-05-04 11:28 51.15619 -0.18342 200 ft 12 kts 197°
2026-05-04 11:29 51.15499 -0.18315 200 ft 20 kts 167°
2026-05-04 11:29 51.15356 -0.18264 200 ft 16 kts 166°
2026-05-04 11:29 51.15241 -0.18227 200 ft 16 kts 177°
2026-05-04 11:29 51.15180 -0.18355 199 ft 15 kts 262°
2026-05-04 11:31 51.15000 -0.19686 200 ft 16 kts 258°
2026-05-04 11:33 51.14870 -0.20626 200 ft 21 kts 255°
2026-05-04 11:33 51.14843 -0.20819 200 ft 16 kts 258°
2026-05-04 11:33 51.14817 -0.21009 200 ft 16 kts 258°
2026-05-04 11:34 51.14788 -0.21166 200 ft 13 kts 252°
2026-05-04 11:34 51.14765 -0.21321 200 ft 14 kts 256°
2026-05-04 11:34 51.14702 -0.21395 200 ft 11 kts 169°
2026-05-04 11:34 51.14673 -0.21369 200 ft 1 kts 141°
2026-05-04 11:35 51.14666 -0.21361 200 ft 0 kts 142°
2026-05-04 11:35 51.14661 -0.21354 199 ft 1 kts 147°
2026-05-04 11:35 51.14640 -0.21343 200 ft 7 kts 168°
2026-05-04 11:35 51.14564 -0.21301 200 ft 10 kts 147°
2026-05-04 11:36 51.14524 -0.21196 200 ft 11 kts 97°
2026-05-04 11:36 51.14529 -0.21104 200 ft 0 kts 79°
2026-05-04 11:37 51.14529 -0.21102 200 ft 5 kts 79°
2026-05-04 11:37 51.14601 -0.20586 200 ft 86 kts 76°
2026-05-04 11:37 51.14793 -0.19183 200 ft 157 kts 77°
2026-05-04 11:37 51.15049 -0.17052 484 ft 196 kts 81°
2026-05-04 11:38 51.15297 -0.14559 973 ft 229 kts 76°
2026-05-04 11:38 51.15685 -0.12023 2178 ft 226 kts 74°
2026-05-04 11:38 51.16072 -0.09593 3348 ft 209 kts 76°
2026-05-04 11:38 51.16544 -0.07215 3964 ft 218 kts 65°
2026-05-04 11:39 51.17429 -0.04882 4455 ft 234 kts 54°
2026-05-04 11:39 51.18513 -0.02637 4897 ft 251 kts 52°
2026-05-04 11:40 51.26952 0.11230 9097 ft 288 kts 359°
2026-05-04 11:41 51.29022 0.10513 9800 ft 289 kts 340°
2026-05-04 11:41 51.31033 0.09371 10402 ft 296 kts 339°
2026-05-04 11:41 51.33187 0.08203 10749 ft 312 kts 341°
2026-05-04 11:41 51.35435 0.07078 11157 ft 325 kts 342°
2026-05-04 11:42 51.37738 0.05993 11788 ft 329 kts 342°
2026-05-04 11:42 51.39994 0.04961 12429 ft 331 kts 343°
2026-05-04 11:42 51.42271 0.03936 13058 ft 334 kts 343°
2026-05-04 11:42 51.44588 0.02901 13674 ft 336 kts 343°
2026-05-04 11:43 51.46969 0.01840 14300 ft 339 kts 343°
2026-05-04 11:43 51.49411 0.00753 14909 ft 342 kts 343°
2026-05-04 11:43 51.51900 -0.00356 15506 ft 346 kts 343°
2026-05-04 11:43 51.54384 -0.01462 16086 ft 349 kts 343°
2026-05-04 11:44 51.56988 -0.02622 16667 ft 353 kts 343°
2026-05-04 11:44 51.59585 -0.03780 17234 ft 357 kts 343°
2026-05-04 11:44 51.62262 -0.04973 17803 ft 361 kts 343°
2026-05-04 11:44 51.64919 -0.06162 18358 ft 364 kts 343°
2026-05-04 11:45 51.67614 -0.07371 18911 ft 367 kts 343°
2026-05-04 11:45 51.70250 -0.08551 19452 ft 370 kts 343°
2026-05-04 11:45 51.72959 -0.09811 19995 ft 372 kts 340°
2026-05-04 11:45 51.75581 -0.11454 20512 ft 373 kts 333°
2026-05-04 11:46 51.78069 -0.13537 21029 ft 375 kts 328°
2026-05-04 11:46 51.80588 -0.15915 21535 ft 377 kts 327°
2026-05-04 11:46 51.83065 -0.18303 22030 ft 380 kts 327°
2026-05-04 11:46 51.85556 -0.20702 22509 ft 383 kts 327°
2026-05-04 11:47 51.88039 -0.23087 22979 ft 385 kts 327°
2026-05-04 11:47 51.90589 -0.25532 23444 ft 388 kts 327°
2026-05-04 11:47 51.93139 -0.27976 23889 ft 390 kts 327°
2026-05-04 11:47 51.95728 -0.30458 24323 ft 393 kts 327°
2026-05-04 11:48 51.98266 -0.32894 24740 ft 395 kts 327°
2026-05-04 11:48 52.00867 -0.35394 25156 ft 398 kts 327°
2026-05-04 11:48 52.03426 -0.37858 25551 ft 400 kts 327°
2026-05-04 11:48 52.06056 -0.40393 25940 ft 402 kts 327°
2026-05-04 11:49 52.08665 -0.42911 26309 ft 405 kts 327°
2026-05-04 11:49 52.11292 -0.45447 26663 ft 407 kts 327°
2026-05-04 11:49 52.13900 -0.47970 27012 ft 410 kts 327°
2026-05-04 11:49 52.16605 -0.50592 27363 ft 412 kts 328°
2026-05-04 11:50 52.19340 -0.53244 27703 ft 414 kts 327°
2026-05-04 11:50 52.22057 -0.55886 28033 ft 416 kts 327°
2026-05-04 11:50 52.24828 -0.58583 28352 ft 419 kts 327°
2026-05-04 11:50 52.27613 -0.61298 28646 ft 422 kts 328°
2026-05-04 11:51 52.30429 -0.64048 28946 ft 424 kts 328°
2026-05-04 11:51 52.33221 -0.66778 29235 ft 426 kts 327°
2026-05-04 11:51 52.35978 -0.69484 29452 ft 430 kts 327°
2026-05-04 11:51 52.38877 -0.72328 29675 ft 434 kts 328°
2026-05-04 11:52 52.41792 -0.75184 29943 ft 437 kts 327°
2026-05-04 11:52 52.44682 -0.78017 30241 ft 438 kts 327°
2026-05-04 11:52 52.47554 -0.80850 30473 ft 441 kts 328°
2026-05-04 11:52 52.50469 -0.83748 30634 ft 445 kts 329°
2026-05-04 11:53 52.53444 -0.86687 30832 ft 449 kts 330°
2026-05-04 11:53 52.56399 -0.89614 31120 ft 449 kts 330°
2026-05-04 11:53 52.59362 -0.92544 31421 ft 449 kts 330°
2026-05-04 11:53 52.62333 -0.95480 31671 ft 450 kts 330°
2026-05-04 11:55 52.83026 -1.16159 33739 ft 442 kts 332°
2026-05-04 11:55 52.85909 -1.19055 34018 ft 441 kts 332°
2026-05-04 11:56 52.88794 -1.21963 34270 ft 441 kts 332°
2026-05-04 11:56 52.91728 -1.24922 34495 ft 441 kts 332°
2026-05-04 11:56 52.94576 -1.27802 34689 ft 441 kts 332°
2026-05-04 11:56 52.97539 -1.30800 34853 ft 442 kts 332°
2026-05-04 11:57 53.00441 -1.33738 35022 ft 442 kts 332°
2026-05-04 11:57 53.03350 -1.36689 35190 ft 442 kts 331°
2026-05-04 11:57 53.06267 -1.39655 35331 ft 443 kts 331°
2026-05-04 11:57 53.09195 -1.42638 35465 ft 443 kts 332°
2026-05-04 11:58 53.12036 -1.45538 35604 ft 444 kts 332°
2026-05-04 11:58 53.14948 -1.48513 35733 ft 444 kts 331°
2026-05-04 11:58 53.17762 -1.51393 35848 ft 444 kts 331°
2026-05-04 11:58 53.20514 -1.54211 35952 ft 445 kts 331°
2026-05-04 11:59 53.23341 -1.57113 36024 ft 446 kts 331°
2026-05-04 11:59 53.28921 -1.62865 36047 ft 446 kts 331°
2026-05-04 12:00 53.34626 -1.68756 36029 ft 447 kts 330°
2026-05-04 12:00 53.40355 -1.74687 36028 ft 446 kts 330°
2026-05-04 12:01 53.45982 -1.80531 36037 ft 445 kts 330°
2026-05-04 12:02 53.66066 -2.01540 36064 ft 442 kts 330°
2026-05-04 12:03 53.71825 -2.07562 36044 ft 441 kts 333°
2026-05-04 12:03 53.77846 -2.12687 36082 ft 438 kts 339°
2026-05-04 12:04 53.84013 -2.16921 36055 ft 437 kts 341°
2026-05-04 12:04 53.90132 -2.21071 36064 ft 437 kts 341°
2026-05-04 12:05 53.96241 -2.25261 36054 ft 436 kts 341°
2026-05-04 12:05 54.02272 -2.29413 36058 ft 436 kts 341°
2026-05-04 12:06 54.08242 -2.33530 36051 ft 435 kts 341°
2026-05-04 12:06 54.14139 -2.37612 36040 ft 434 kts 341°
2026-05-04 12:07 54.19960 -2.41656 35787 ft 432 kts 341°
2026-05-04 12:07 54.22896 -2.43706 35565 ft 430 kts 341°
2026-05-04 12:07 54.25865 -2.45789 35339 ft 426 kts 341°
2026-05-04 12:08 54.28661 -2.47748 35120 ft 423 kts 341°
2026-05-04 12:08 54.31495 -2.49735 34893 ft 419 kts 341°
2026-05-04 12:08 54.34382 -2.51756 34612 ft 418 kts 341°
2026-05-04 12:08 54.37223 -2.53744 34308 ft 418 kts 341°
2026-05-04 12:09 54.40059 -2.55734 33885 ft 419 kts 341°
2026-05-04 12:09 54.42883 -2.57718 33340 ft 419 kts 341°
2026-05-04 12:09 54.45767 -2.59749 32666 ft 420 kts 341°
2026-05-04 12:09 54.48549 -2.61712 32008 ft 420 kts 341°
2026-05-04 12:10 54.51390 -2.63721 31485 ft 416 kts 341°
2026-05-04 12:10 54.54256 -2.65752 31071 ft 414 kts 340°
2026-05-04 12:10 54.57142 -2.67800 30613 ft 410 kts 340°
2026-05-04 12:10 54.59866 -2.69731 30201 ft 407 kts 340°
2026-05-04 12:11 54.62663 -2.71714 29743 ft 404 kts 340°
2026-05-04 12:11 54.65401 -2.73655 29227 ft 401 kts 340°
2026-05-04 12:11 54.68122 -2.75592 28779 ft 396 kts 340°
2026-05-04 12:11 54.70723 -2.77448 28323 ft 392 kts 340°
2026-05-04 12:12 54.73397 -2.79360 27822 ft 389 kts 339°
2026-05-04 12:12 54.76024 -2.81241 27280 ft 386 kts 339°
2026-05-04 12:12 54.78671 -2.83138 26759 ft 382 kts 339°
2026-05-04 12:12 54.81211 -2.84962 26372 ft 376 kts 339°
2026-05-04 12:13 54.83735 -2.86781 26245 ft 362 kts 339°
2026-05-04 12:14 54.99708 -2.98325 23868 ft 316 kts 339°
2026-05-04 12:15 55.01985 -2.99980 23465 ft 311 kts 339°
2026-05-04 12:15 55.04203 -3.01589 23038 ft 308 kts 339°
2026-05-04 12:15 55.06459 -3.03228 22581 ft 306 kts 339°
2026-05-04 12:15 55.08625 -3.04807 22122 ft 305 kts 338°
2026-05-04 12:16 55.10791 -3.06389 21676 ft 303 kts 338°
2026-05-04 12:16 55.12850 -3.07893 21294 ft 300 kts 338°
2026-05-04 12:16 55.14946 -3.09427 20889 ft 298 kts 338°
2026-05-04 12:16 55.17046 -3.10964 20490 ft 296 kts 337°
2026-05-04 12:17 55.19149 -3.12505 20061 ft 295 kts 337°
2026-05-04 12:17 55.21220 -3.14026 19386 ft 304 kts 336°
2026-05-04 12:17 55.23375 -3.15607 18988 ft 301 kts 336°
2026-05-04 12:17 55.25550 -3.17209 18656 ft 296 kts 336°
2026-05-04 12:18 55.27660 -3.18764 18327 ft 291 kts 336°
2026-05-04 12:18 55.29740 -3.19960 17997 ft 289 kts 348°
2026-05-04 12:18 55.31941 -3.20168 17661 ft 287 kts
2026-05-04 12:18 55.34145 -3.19850 17296 ft 285 kts
2026-05-04 12:19 55.36333 -3.19479 16897 ft 284 kts
2026-05-04 12:19 55.38504 -3.19115 16510 ft 283 kts
2026-05-04 12:19 55.40677 -3.18758 16130 ft 281 kts
2026-05-04 12:19 55.42838 -3.18413 15748 ft 280 kts
2026-05-04 12:20 55.45009 -3.18070 15367 ft 278 kts
2026-05-04 12:20 55.47152 -3.17730 14989 ft 277 kts
2026-05-04 12:20 55.49322 -3.17388 14604 ft 276 kts
2026-05-04 12:20 55.51406 -3.17061 14243 ft 274 kts
2026-05-04 12:21 55.53526 -3.16726 13879 ft 272 kts
2026-05-04 12:21 55.55572 -3.16404 13534 ft 270 kts
2026-05-04 12:21 55.57679 -3.16073 13167 ft 268 kts
2026-05-04 12:21 55.59710 -3.15752 12805 ft 267 kts
2026-05-04 12:22 55.61747 -3.15432 12442 ft 266 kts
2026-05-04 12:22 55.63836 -3.15102 12064 ft 265 kts
2026-05-04 12:22 55.65819 -3.14788 11711 ft 264 kts
2026-05-04 12:22 55.67835 -3.14468 11351 ft 263 kts
2026-05-04 12:23 55.69852 -3.14148 10980 ft 262 kts
2026-05-04 12:23 55.71904 -3.13803 10609 ft 261 kts
2026-05-04 12:23 55.73900 -3.13329 10256 ft 260 kts
2026-05-04 12:23 55.75869 -3.12831 9892 ft 257 kts
2026-05-04 12:24 55.77772 -3.12349 9262 ft 260 kts
2026-05-04 12:24 55.79666 -3.11875 8495 ft 266 kts
2026-05-04 12:24 55.81523 -3.11408 7911 ft 264 kts
2026-05-04 12:24 55.83357 -3.10942 7354 ft 261 kts
2026-05-04 12:25 55.85156 -3.10486 6810 ft 258 kts
2026-05-04 12:25 55.86993 -3.10021 6241 ft 256 kts
2026-05-04 12:25 55.88795 -3.09566 5688 ft 254 kts
2026-05-04 12:25 55.90586 -3.09114 5260 ft 252 kts
2026-05-04 12:26 55.92366 -3.08664 4902 ft 251 kts
2026-05-04 12:26 55.94220 -3.08194 4553 ft 250 kts
2026-05-04 12:26 55.96036 -3.07735 4222 ft 247 kts
2026-05-04 12:26 55.97823 -3.07281 3900 ft 244 kts
2026-05-04 12:27 55.99610 -3.06827 3583 ft 243 kts
2026-05-04 12:27 56.01368 -3.06384 3269 ft 242 kts
2026-05-04 12:27 56.03075 -3.06638 2958 ft 231 kts 330°
2026-05-04 12:27 56.04172 -3.08740 2950 ft 209 kts 285°
2026-05-04 12:28 56.04041 -3.11366 3026 ft 192 kts 245°
2026-05-04 12:28 56.03292 -3.13368 2949 ft 179 kts 236°
2026-05-04 12:28 56.02552 -3.15208 2743 ft 167 kts 238°
2026-05-04 12:28 56.01942 -3.16854 2537 ft 151 kts 240°
2026-05-04 12:29 56.01364 -3.18503 2310 ft 144 kts 241°
2026-05-04 12:29 56.00825 -3.20085 2112 ft 142 kts 241°
2026-05-04 12:29 56.00265 -3.21731 1913 ft 142 kts 241°
2026-05-04 12:29 55.99710 -3.23366 1716 ft 141 kts 241°
2026-05-04 12:30 55.99163 -3.24976 1517 ft 141 kts 240°
2026-05-04 12:30 55.98600 -3.26628 1304 ft 141 kts 242°
2026-05-04 12:30 55.98043 -3.28263 1094 ft 140 kts 243°
2026-05-04 12:30 55.97481 -3.29919 880 ft 139 kts 243°
2026-05-04 12:31 55.96930 -3.31577 695 ft 139 kts 242°
2026-05-04 12:31 55.96388 -3.33205 437 ft 138 kts 241°
2026-05-04 12:31 55.95835 -3.34790 182 ft 137 kts 242°
2026-05-04 12:31 55.95310 -3.36375 107 ft 123 kts 240°
2026-05-04 12:32 55.94986 -3.37297 106 ft 40 kts 240°
2026-05-04 12:32 55.94848 -3.37694 107 ft 18 kts 240°
2026-05-04 12:32 55.94775 -3.37910 108 ft 17 kts 238°
2026-05-04 12:33 55.94684 -3.38032 109 ft 11 kts 172°
2026-05-04 12:33 55.94666 -3.38022 108 ft 0 kts 155°
2026-05-04 12:33 55.94653 -3.38010 108 ft 5 kts 155°
2026-05-04 12:33 55.94601 -3.37898 108 ft 13 kts 89°
2026-05-04 12:34 55.94644 -3.37731 107 ft 14 kts 59°
2026-05-04 12:34 55.94701 -3.37555 107 ft 15 kts 59°
2026-05-04 12:34 55.94766 -3.37368 107 ft 16 kts 58°
2026-05-04 12:34 55.94833 -3.37173 107 ft 17 kts 60°
2026-05-04 12:35 55.94902 -3.36971 106 ft 17 kts 58°
2026-05-04 12:35 55.94972 -3.36764 106 ft 17 kts 59°
2026-05-04 12:35 55.95044 -3.36558 107 ft 18 kts 60°
2026-05-04 12:35 55.95113 -3.36344 107 ft 18 kts 60°
2026-05-04 12:36 55.95121 -3.36108 107 ft 18 kts 109°
2026-05-04 12:36 55.95057 -3.35957 107 ft 6 kts 153°
2026-05-04 12:36 55.95021 -3.35930 107 ft 5 kts 155°
2026-05-04 12:36 55.94979 -3.35907 107 ft 7 kts 178°
2026-05-04 12:37 55.94968 -3.35907 108 ft 0 kts 190°
2026-05-04 12:37 55.94966 -3.35915 108 ft 0 kts 259°
2026-05-04 12:37 55.94966 -3.35941 107 ft 2 kts 256°
2026-05-04 12:37 55.94963 -3.35973 107 ft 2 kts 249°
2026-05-04 12:38 55.94956 -3.36015 107 ft 3 kts 253°
2026-05-04 12:38 55.94954 -3.36026 107 ft 0 kts 254°